Theta_e
351 345 339 335 335 334 335 337 339 340 339 340 339 337 336 336 336 336 336 336 334 331 332 333 333 333 332 332 331 333 336 334
350 347 345 342 339 335 335 337 339 339 341 340 339 337 337 337 337 337 337 337 332 332 332 332 332 332 332 332 330 334 336 333
349 349 347 345 344 340 335 337 339 340 341 340 339 342 341 340 339 340 338 336 332 332 332 332 332 332 332 332 330 333 334 333
348 348 348 347 345 345 341 341 341 343 343 343 342 341 341 342 341 341 337 334 333 333 333 333 333 335 334 332 333 334 333 333
347 347 348 347 345 344 343 342 341 342 342 343 341 341 342 342 342 342 340 335 336 334 334 336 336 337 336 335 334 335 334 332
345 346 347 347 343 342 342 341 342 342 342 343 342 341 342 342 343 342 340 338 337 336 336 336 336 337 337 336 335 335 333 333
335 345 346 346 345 341 340 340 341 341 342 343 343 343 342 342 343 342 340 339 338 337 336 336 336 336 336 336 336 335 335 334
323 340 344 344 344 343 341 341 341 341 342 344 343 343 343 342 343 342 342 341 338 338 336 337 335 336 336 336 335 335 334 333
317 336 342 343 343 342 341 340 341 341 341 342 344 344 343 342 342 342 342 341 339 338 338 338 336 335 335 334 335 334 334 333
314 319 337 342 342 342 340 340 340 341 340 342 344 345 343 342 342 341 342 340 339 339 337 336 336 334 334 335 334 332 333 333
312 313 326 339 341 341 340 340 341 341 341 341 342 342 344 343 342 342 341 342 340 339 338 337 337 336 334 334 334 333 333 334
311 312 314 337 340 340 340 341 341 339 341 340 342 340 342 344 341 342 341 342 341 341 338 338 337 336 335 334 334 335 334 332
312 312 313 323 339 340 340 342 341 339 339 340 340 340 339 342 342 341 339 341 341 338 339 339 337 337 336 335 335 336 335 334
311 312 313 314 337 339 339 340 340 340 340 340 340 341 339 340 339 340 338 340 339 341 338 338 338 337 337 336 336 335 334 334
311 311 312 313 316 338 338 338 339 339 338 338 339 339 339 337 338 340 338 338 339 341 337 337 337 337 337 335 337 336 332 335
315 310 311 312 314 336 338 338 339 337 336 337 337 337 337 336 337 339 339 339 337 339 336 336 336 336 335 336 336 336 336 337
317 312 310 311 313 327 337 338 338 336 335 336 336 338 338 337 336 338 339 340 337 335 334 335 334 334 333 334 336 336 336 336
312 317 310 310 311 323 337 337 339 336 336 337 337 339 338 339 338 338 339 337 334 333 332 329 331 332 333 334 333 334 335 334
303 306 311 314 320 324 336 337 337 337 337 337 339 339 339 339 338 339 338 336 334 329 327 326 325 327 333 334 334 334 333 333
300 302 305 309 309 312 321 330 335 337 338 340 341 339 337 338 339 338 336 335 332 327 326 326 325 328 331 328 334 334 332 333
Wind_Speed
11 19 26 27 26 26 25 26 28 28 28 27 26 24 23 22 20 19 17 15 14 14 14 13 13 12 10 10 9 7 2 7
13 18 19 20 23 25 25 25 28 28 28 27 26 25 23 21 20 18 17 15 15 15 14 13 13 11 11 10 8 8 2 3
17 18 20 20 19 22 25 25 27 28 27 26 25 20 21 20 18 17 17 16 15 15 14 13 12 11 10 9 9 7 3 4
19 21 23 23 22 20 22 22 23 23 22 23 21 20 20 19 19 18 17 15 16 15 15 14 12 8 8 10 8 8 4 3
21 23 23 25 24 23 23 23 23 24 24 24 24 23 23 22 20 17 15 16 14 15 15 13 13 13 13 9 9 4 7 5
19 24 25 25 25 25 25 26 26 26 27 27 27 26 24 23 21 20 20 18 17 16 14 14 14 12 9 10 10 8 8 7
17 24 26 26 26 25 25 28 29 28 29 30 29 28 25 24 22 22 22 20 20 19 17 16 17 13 12 11 11 10 8 7
21 23 26 28 29 26 26 26 26 29 29 31 32 28 27 26 23 23 23 23 20 20 18 15 15 16 14 13 13 13 12 10
27 21 26 31 31 31 27 28 29 30 29 28 32 30 25 28 26 25 23 23 21 23 21 18 17 15 17 15 13 13 12 10
25 25 28 31 32 31 31 30 32 29 30 28 30 31 26 27 27 27 26 28 26 21 20 19 18 16 15 14 14 14 14 12
30 30 24 32 33 32 32 31 32 31 28 28 30 36 30 27 26 25 22 22 25 25 21 22 21 18 16 13 14 14 15 13
32 32 33 32 33 33 33 31 32 31 32 33 27 35 35 29 27 23 25 21 23 24 23 22 21 18 17 15 15 13 15 16
36 33 32 28 34 34 33 33 33 34 33 35 32 29 33 33 28 25 27 25 24 28 22 20 19 15 12 11 13 14 17 17
34 37 37 37 33 36 36 33 34 34 34 32 34 32 33 32 32 25 25 24 23 23 27 19 17 19 13 9 5 13 19 21
35 38 39 38 38 37 35 34 30 32 30 29 31 31 30 35 33 29 24 26 23 22 23 21 17 19 21 12 5 8 11 16
35 35 38 39 43 35 39 35 33 34 34 33 31 33 29 31 32 33 26 24 21 19 22 23 20 18 16 26 24 19 4 3
27 33 36 38 43 40 38 39 36 32 33 35 33 33 32 31 30 30 27 21 23 17 18 18 19 18 15 15 23 22 20 10
33 30 32 37 44 40 44 41 34 32 32 31 34 30 33 32 31 31 30 29 28 28 25 13 18 23 27 27 20 11 14 15
32 28 22 17 19 30 48 38 41 33 33 31 31 27 26 30 31 31 34 35 33 32 29 26 26 38 28 24 22 28 24 25
31 24 20 19 24 22 7 14 32 29 31 28 28 29 29 28 28 33 34 33 37 29 31 37 37 33 33 30 26 26 25 31
Wind_Direction
181 188 190 191 192 190 190 190 190 191 192 191 189 189 191 189 189 188 187 189 184 177 172 169 167 165 165 161 161 183 53 115
192 193 193 191 196 196 194 194 193 192 195 194 192 190 192 193 194 195 193 193 186 178 175 174 171 172 167 167 164 164 233 151
205 199 198 196 196 199 198 198 197 196 196 197 194 186 191 198 195 207 196 194 188 182 180 178 176 178 178 183 179 210 209 205
211 204 201 200 200 199 197 198 198 197 194 196 192 189 191 194 196 205 197 196 191 188 186 184 178 187 197 199 216 240 225 195
219 207 205 204 205 198 199 199 198 200 198 194 195 195 190 192 191 197 194 197 190 192 190 191 204 210 200 205 229 228 221 222
217 217 207 208 209 204 200 200 199 200 201 197 196 200 194 193 194 192 192 194 196 194 199 204 213 228 217 210 231 237 235 194
235 214 206 210 216 207 208 202 199 203 200 199 200 201 196 195 196 192 195 195 201 197 206 206 216 219 226 226 231 227 262 251
261 226 213 214 211 218 203 207 205 204 203 200 203 205 196 196 196 197 197 200 205 203 214 212 219 214 213 231 232 232 232 234
282 219 217 214 215 212 208 205 210 207 209 204 200 209 203 195 197 196 199 199 205 210 204 220 210 220 211 217 234 237 242 228
271 268 213 215 216 212 211 206 203 207 211 206 206 208 209 200 197 203 203 201 207 206 213 210 221 225 224 207 220 232 232 242
259 265 251 210 215 217 214 208 199 205 208 211 210 208 211 200 206 209 204 195 203 208 214 208 210 227 230 224 234 228 224 229
264 255 261 215 206 216 220 208 200 202 203 212 204 211 207 206 207 199 212 200 204 212 214 201 220 210 222 226 234 238 239 240
264 261 254 250 203 209 216 211 199 198 204 204 206 209 209 208 204 200 202 215 207 215 216 216 211 222 209 226 228 240 243 244
259 254 255 253 217 211 214 214 202 197 200 200 201 202 208 207 202 201 209 214 217 199 206 208 215 209 207 207 228 238 240 236
260 249 252 250 250 209 211 216 212 202 196 200 200 200 198 207 205 205 204 206 214 204 201 204 201 208 212 212 223 249 259 208
259 252 250 248 248 217 202 209 208 202 194 192 203 201 198 200 204 204 215 204 214 193 207 208 208 211 219 238 252 276 273 233
309 251 248 248 253 234 206 212 213 202 196 188 198 196 194 193 199 203 213 201 190 193 197 216 230 235 220 223 243 250 252 258
347 339 253 245 249 243 209 209 210 202 194 189 185 192 193 194 192 197 195 196 191 176 172 198 254 252 238 230 234 239 230 233
353 351 340 330 281 278 209 204 210 206 194 192 177 184 191 195 196 192 185 192 184 183 183 197 219 242 232 232 229 234 241 253
348 354 354 23 42 40 255 177 221 213 204 188 176 182 192 197 187 187 188 191 199 203 211 221 236 228 230 235 230 230 240 241